FLOCK 3P-17

Last updated on Wed Feb 14 2018 16:20:19 GMT+0000 (Coordinated Universal Time)

1 41962U 17008Q 18044.91629025 .00002715 00000-0 11477-3 0 9997 2 41962 97.4655 110.4158 0009884 72.3098 287.9218 15.24055624 55122

Satellite not in orbit

FLOCK 3P-17